{"data":{"norad_id":48358,"epoch":"2026-05-24T20:57:01.977120Z","epoch_age_seconds":76125,"freshness":"FRESH","line1":"1 48358U 21038F   26144.87293955  .00014684  00000+0  48490-3 0  9997","line2":"2 48358  53.1605   3.7997 0001510  87.0670 273.0504 15.31641056278741","mean_motion":15.31641056,"eccentricity":0.000151,"inclination_deg":53.1605,"raan_deg":3.7997,"arg_perigee_deg":87.067,"mean_anomaly_deg":273.0504,"bstar":0.0004849,"rev_number":27874,"period_min":94.0168059846,"perigee_km":469.88150289826,"apogee_km":471.94991681663,"semimajor_km":6849.0527098574,"source":"CELESTRAK","updated_at":"2026-05-25T13:38:16.685276Z"}}